| time (UTC) | temp C | wind direction | speed KPH | gust KPH | rain 1hr cm | rain 24hr cm | rain mn cm | humidity % | barometer mb |
| 20260508013414 | 22 | 262 | 4.8 | 8.0 | 0.00 | 0.00 | 0.00 | 64 | 1017.7 |
| 20260508012912 | 23 | 306 | 1.6 | 3.2 | 0.00 | 0.00 | 0.00 | 65 | 1017.6 |
| 20260508012409 | 23 | 270 | 0.0 | 4.8 | 0.00 | 0.00 | 0.00 | 64 | 1017.7 |
| 20260508011907 | 23 | 250 | 4.8 | 4.8 | 0.00 | 0.00 | 0.00 | 65 | 1017.6 |
| 20260508011404 | 23 | 228 | 3.2 | 3.2 | 0.00 | 0.00 | 0.00 | 64 | 1017.7 |
| 20260508010901 | 23 | 261 | 0.0 | 4.8 | 0.00 | 0.00 | 0.00 | 63 | 1017.5 |
| 20260508010358 | 23 | 246 | 1.6 | 4.8 | 0.00 | 0.00 | 0.00 | 62 | 1017.6 |
| 20260508005855 | 25 | 217 | 3.2 | 6.4 | 0.00 | 0.00 | 0.00 | 62 | 1017.5 |
| 20260508005352 | 25 | 201 | 3.2 | 4.8 | 0.00 | 0.00 | 0.00 | 60 | 1017.5 |
| 20260508004848 | 24 | 212 | 3.2 | 4.8 | 0.00 | 0.00 | 0.00 | 61 | 1017.5 |
| 20260508004345 | 24 | 201 | 3.2 | 4.8 | 0.00 | 0.00 | 0.00 | 60 | 1017.2 |
| 20260508003841 | 25 | 208 | 4.8 | 4.8 | 0.00 | 0.00 | 0.00 | 57 | 1017.4 |
| 20260508003338 | 25 | 218 | 3.2 | 4.8 | 0.00 | 0.00 | 0.00 | 58 | 1017.4 |
| 20260508002836 | 25 | 249 | 1.6 | 4.8 | 0.00 | 0.00 | 0.00 | 58 | 1017.5 |
| 20260508002332 | 25 | 225 | 4.8 | 8.0 | 0.00 | 0.00 | 0.00 | 58 | 1017.5 |
| 20260508001828 | 24 | 283 | 0.0 | 8.0 | 0.00 | 0.00 | 0.00 | 60 | 1017.3 |
| 20260508001324 | 25 | 216 | 0.0 | 6.4 | 0.00 | 0.00 | 0.00 | 58 | 1017.2 |
| 20260508000821 | 24 | 12 | 0.0 | 3.2 | 0.00 | 0.00 | 0.00 | 58 | 1017.3 |
| 20260508000319 | 25 | 188 | 3.2 | 8.0 | 0.00 | 0.00 | 0.00 | 58 | 1017.4 |
| 20260507235814 | 25 | 257 | 3.2 | 8.0 | 0.00 | 0.00 | 0.00 | 58 | 1017.4 |
| 20260507235312 | 25 | 114 | 0.0 | 3.2 | 0.00 | 0.00 | 0.00 | 58 | 1017.4 |
| 20260507234809 | 25 | 216 | 3.2 | 4.8 | 0.00 | 0.00 | 0.00 | 57 | 1017.2 |
| 20260507234305 | 23 | 114 | 0.0 | 4.8 | 0.00 | 0.00 | 0.00 | 59 | 1017.5 |
| 20260507233801 | 23 | 159 | 3.2 | 4.8 | 0.00 | 0.00 | 0.00 | 58 | 1017.5 |
| 20260507233259 | 25 | 229 | 4.8 | 8.0 | 0.00 | 0.00 | 0.00 | 57 | 1017.4 |
| 20260507232757 | 24 | 74 | 0.0 | 4.8 | 0.00 | 0.00 | 0.00 | 57 | 1017.6 |
| 20260507232253 | 24 | 204 | 0.0 | 6.4 | 0.00 | 0.00 | 0.00 | 58 | 1017.6 |
| 20260507231750 | 24 | 214 | 3.2 | 6.4 | 0.00 | 0.00 | 0.00 | 58 | 1017.4 |
| 20260507231247 | 24 | 105 | 1.6 | 4.8 | 0.00 | 0.00 | 0.00 | 57 | 1017.6 |
| 20260507230743 | 24 | 219 | 0.0 | 6.4 | 0.00 | 0.00 | 0.00 | 58 | 1017.4 |
| 20260507230241 | 23 | 281 | 0.0 | 3.2 | 0.00 | 0.00 | 0.00 | 57 | 1017.7 |
| 20260507225740 | 24 | 212 | 0.0 | 4.8 | 0.00 | 0.00 | 0.00 | 57 | 1017.7 |
| 20260507225237 | 23 | 247 | 8.0 | 8.0 | 0.00 | 0.00 | 0.00 | 58 | 1017.7 |
| 20260507224733 | 23 | 145 | 0.0 | 3.2 | 0.00 | 0.00 | 0.00 | 61 | 1017.8 |
| 20260507224230 | 24 | 254 | 1.6 | 6.4 | 0.00 | 0.00 | 0.00 | 59 | 1017.7 |
| 20260507223726 | 23 | 243 | 1.6 | 9.7 | 0.00 | 0.00 | 0.00 | 60 | 1017.7 |
| 20260507223223 | 23 | 216 | 3.2 | 4.8 | 0.00 | 0.00 | 0.00 | 58 | 1017.9 |
| 20260507222719 | 23 | 75 | 0.0 | 4.8 | 0.00 | 0.00 | 0.00 | 61 | 1017.8 |
| 20260507222216 | 23 | 270 | 0.0 | 6.4 | 0.00 | 0.00 | 0.00 | 62 | 1017.9 |
| 20260507221713 | 22 | 221 | 0.0 | 6.4 | 0.00 | 0.00 | 0.00 | 61 | 1017.8 |
| 20260507221209 | 23 | 205 | 0.0 | 6.4 | 0.00 | 0.00 | 0.00 | 61 | 1017.9 |
| 20260507220706 | 23 | 194 | 1.6 | 8.0 | 0.00 | 0.00 | 0.00 | 61 | 1018.0 |
| 20260507220204 | 23 | 208 | 4.8 | 6.4 | 0.00 | 0.00 | 0.00 | 61 | 1018.5 |
| 20260507215700 | 23 | 218 | 4.8 | 9.7 | 0.00 | 0.00 | 0.00 | 60 | 1018.3 |
| 20260507215157 | 23 | 209 | 1.6 | 6.4 | 0.00 | 0.00 | 0.00 | 59 | 1018.2 |
| 20260507214654 | 23 | 270 | 0.0 | 4.8 | 0.00 | 0.00 | 0.00 | 61 | 1018.2 |
| 20260507214151 | 23 | 209 | 0.0 | 6.4 | 0.00 | 0.00 | 0.00 | 61 | 1018.4 |
| 20260507213647 | 23 | 221 | 8.0 | 8.0 | 0.00 | 0.00 | 0.00 | 61 | 1018.5 |
| 20260507213144 | 23 | 218 | 0.0 | 8.0 | 0.00 | 0.00 | 0.00 | 60 | 1018.4 |
| 20260507212640 | 23 | 249 | 1.6 | 6.4 | 0.00 | 0.00 | 0.00 | 60 | 1018.5 |
| 20260507212137 | 23 | 204 | 3.2 | 8.0 | 0.00 | 0.00 | 0.00 | 61 | 1018.4 |
| 20260507211634 | 23 | 203 | 4.8 | 8.0 | 0.00 | 0.00 | 0.00 | 60 | 1018.7 |
| 20260507211129 | 23 | 243 | 3.2 | 8.0 | 0.00 | 0.00 | 0.00 | 60 | 1018.6 |
| 20260507210628 | 23 | 251 | 0.0 | 4.8 | 0.00 | 0.00 | 0.00 | 60 | 1018.7 |
| 20260507210124 | 22 | 216 | 0.0 | 11.3 | 0.00 | 0.00 | 0.00 | 63 | 1018.8 |
| 20260507205621 | 23 | 216 | 3.2 | 9.7 | 0.00 | 0.00 | 0.00 | 61 | 1018.8 |
| 20260507205117 | 23 | 286 | 3.2 | 11.3 | 0.00 | 0.00 | 0.00 | 62 | 1018.8 |
| 20260507204613 | 23 | 233 | 3.2 | 8.0 | 0.00 | 0.00 | 0.00 | 61 | 1018.8 |
| 20260507204111 | 23 | 256 | 0.0 | 9.7 | 0.00 | 0.00 | 0.00 | 62 | 1018.8 |
| 20260507203609 | 23 | 255 | 1.6 | 4.8 | 0.00 | 0.00 | 0.00 | 62 | 1018.9 |
| 20260507203106 | 22 | 208 | 0.0 | 8.0 | 0.00 | 0.00 | 0.00 | 64 | 1018.9 |
| 20260507202601 | 22 | 208 | 4.8 | 8.0 | 0.00 | 0.00 | 0.00 | 63 | 1019.1 |
| 20260507202058 | 23 | 214 | 4.8 | 6.4 | 0.00 | 0.00 | 0.00 | 61 | 1018.9 |
| 20260507201553 | 22 | 247 | 0.0 | 6.4 | 0.00 | 0.00 | 0.00 | 64 | 1019.1 |
| 20260507201050 | 22 | 180 | 3.2 | 8.0 | 0.00 | 0.00 | 0.00 | 64 | 1019.1 |
| 20260507200545 | 22 | 195 | 1.6 | 11.3 | 0.00 | 0.00 | 0.00 | 63 | 1019.2 |
| 20260507200042 | 22 | 287 | 4.8 | 8.0 | 0.00 | 0.00 | 0.00 | 64 | 1019.3 |
| 20260507195539 | 23 | 249 | 1.6 | 6.4 | 0.00 | 0.00 | 0.00 | 63 | 1019.5 |
| 20260507195037 | 22 | 264 | 0.0 | 6.4 | 0.00 | 0.00 | 0.00 | 63 | 1019.4 |
| 20260507194533 | 23 | 206 | 0.0 | 6.4 | 0.00 | 0.00 | 0.00 | 64 | 1019.5 |
| 20260507194029 | 22 | 204 | 3.2 | 11.3 | 0.00 | 0.00 | 0.00 | 64 | 1019.2 |
| 20260507193526 | 22 | 209 | 0.0 | 8.0 | 0.00 | 0.00 | 0.00 | 64 | 1019.4 |
| 20260507193023 | 22 | 265 | 0.0 | 9.7 | 0.00 | 0.00 | 0.00 | 64 | 1019.5 |
| 20260507192519 | 22 | 240 | 1.6 | 6.4 | 0.00 | 0.00 | 0.00 | 64 | 1019.5 |
| 20260507192016 | 22 | 254 | 0.0 | 4.8 | 0.00 | 0.00 | 0.00 | 64 | 1019.6 |
| 20260507191511 | 22 | 189 | 3.2 | 6.4 | 0.00 | 0.00 | 0.00 | 64 | 1019.7 |
| 20260507191009 | 22 | 213 | 4.8 | 4.8 | 0.00 | 0.00 | 0.00 | 63 | 1019.8 |
| 20260507190506 | 21 | 172 | 0.0 | 6.4 | 0.00 | 0.00 | 0.00 | 62 | 1019.8 |
| 20260507190006 | 21 | 261 | 0.0 | 11.3 | 0.00 | 0.00 | 0.00 | 65 | 1019.9 |
| 20260507185502 | 21 | 270 | 0.0 | 6.4 | 0.00 | 0.00 | 0.00 | 67 | 1019.8 |
| 20260507184959 | 22 | 206 | 3.2 | 12.9 | 0.00 | 0.00 | 0.00 | 65 | 1019.8 |
| 20260507184457 | 22 | 240 | 0.0 | 4.8 | 0.00 | 0.00 | 0.00 | 65 | 1020.1 |
| 20260507183955 | 21 | 239 | 3.2 | 3.2 | 0.00 | 0.00 | 0.00 | 66 | 1019.9 |
| 20260507183450 | 21 | 241 | 4.8 | 8.0 | 0.00 | 0.00 | 0.00 | 66 | 1019.9 |
| 20260507182948 | 21 | 275 | 0.0 | 9.7 | 0.00 | 0.00 | 0.00 | 66 | 1020.2 |
| 20260507182444 | 21 | 123 | 3.2 | 4.8 | 0.00 | 0.00 | 0.00 | 64 | 1020.1 |
| 20260507181940 | 21 | 124 | 0.0 | 6.4 | 0.00 | 0.00 | 0.00 | 66 | 1020.0 |
| 20260507181436 | 21 | 278 | 6.4 | 6.4 | 0.00 | 0.00 | 0.00 | 66 | 1020.2 |
| 20260507180933 | 21 | 221 | 0.0 | 6.4 | 0.00 | 0.00 | 0.00 | 67 | 1019.9 |
| 20260507180430 | 21 | 82 | 0.0 | 6.4 | 0.00 | 0.00 | 0.00 | 66 | 1020.2 |
| 20260507175926 | 21 | 135 | 0.0 | 6.4 | 0.00 | 0.00 | 0.00 | 64 | 1020.2 |
| 20260507175423 | 21 | 109 | 1.6 | 4.8 | 0.00 | 0.00 | 0.00 | 66 | 1020.1 |
| 20260507174921 | 20 | 209 | 3.2 | 4.8 | 0.00 | 0.00 | 0.00 | 68 | 1020.2 |
| 20260507174418 | 20 | 235 | 0.0 | 4.8 | 0.00 | 0.00 | 0.00 | 67 | 1020.4 |
| 20260507173915 | 21 | 231 | 0.0 | 8.0 | 0.00 | 0.00 | 0.00 | 66 | 1020.4 |
| 20260507173412 | 20 | 0 | 3.2 | 3.2 | 0.00 | 0.00 | 0.00 | 67 | 1020.3 |
| 20260507172908 | 19 | 241 | 0.0 | 4.8 | 0.00 | 0.00 | 0.00 | 68 | 1020.3 |
| 20260507172405 | 20 | 216 | 0.0 | 3.2 | 0.00 | 0.00 | 0.00 | 68 | 1020.3 |
| 20260507171901 | 20 | 201 | 4.8 | 6.4 | 0.00 | 0.00 | 0.00 | 67 | 1020.4 |
| 20260507171358 | 20 | 216 | 0.0 | 4.8 | 0.00 | 0.00 | 0.00 | 66 | 1020.4 |
| 20260507170855 | 20 | 255 | 0.0 | 6.4 | 0.00 | 0.00 | 0.00 | 68 | 1020.2 |
| 20260507170351 | 18 | 270 | 0.0 | 0.0 | 0.00 | 0.00 | 0.00 | 70 | 1020.3 |
| 20260507165848 | 19 | 209 | 0.0 | 4.8 | 0.00 | 0.00 | 0.00 | 69 | 1020.6 |
| 20260507165343 | 18 | 221 | 3.2 | 3.2 | 0.00 | 0.00 | 0.00 | 70 | 1020.4 |
| 20260507164840 | 19 | 228 | 3.2 | 4.8 | 0.00 | 0.00 | 0.00 | 69 | 1020.2 |
| 20260507164337 | 18 | 209 | 0.0 | 4.8 | 0.00 | 0.00 | 0.00 | 71 | 1020.5 |
| 20260507163834 | 18 | 279 | 0.0 | 6.4 | 0.00 | 0.00 | 0.00 | 70 | 1020.5 |
| 20260507163331 | 19 | 114 | 0.0 | 1.6 | 0.00 | 0.00 | 0.00 | 70 | 1020.5 |
| 20260507162828 | 17 | 114 | 0.0 | 3.2 | 0.00 | 0.00 | 0.00 | 71 | 1020.6 |
| 20260507162323 | 18 | 102 | 3.2 | 3.2 | 0.00 | 0.00 | 0.00 | 71 | 1020.3 |
| 20260507161821 | 18 | 249 | 0.0 | 0.0 | 0.00 | 0.00 | 0.00 | 71 | 1020.7 |
| 20260507161317 | 18 | 98 | 0.0 | 1.6 | 0.00 | 0.00 | 0.00 | 73 | 1020.7 |
| 20260507160814 | 17 | 97 | 1.6 | 4.8 | 0.00 | 0.00 | 0.00 | 75 | 1020.7 |
| 20260507160309 | 16 | 255 | 0.0 | 3.2 | 0.00 | 0.00 | 0.00 | 77 | 1020.8 |
| 20260507155806 | 16 | 270 | 0.0 | 3.2 | 0.00 | 0.00 | 0.00 | 78 | 1020.5 |
| 20260507155306 | 18 | 270 | 4.8 | 4.8 | 0.00 | 0.00 | 0.00 | 78 | 1020.8 |
| 20260507154759 | 18 | 261 | 0.0 | 3.2 | 0.00 | 0.00 | 0.00 | 75 | 1020.8 |
| 20260507154256 | 18 | 120 | 0.0 | 1.6 | 0.00 | 0.00 | 0.00 | 77 | 1020.7 |
| 20260507153752 | 18 | 220 | 0.0 | 0.0 | 0.00 | 0.00 | 0.00 | 81 | 1020.8 |
| 20260507153249 | 17 | 229 | 0.0 | 3.2 | 0.00 | 0.00 | 0.00 | 82 | 1020.7 |
| 20260507152746 | 17 | 251 | 0.0 | 0.0 | 0.00 | 0.00 | 0.00 | 83 | 1020.8 |
| 20260507152242 | 16 | 251 | 0.0 | 3.2 | 0.00 | 0.00 | 0.00 | 84 | 1020.8 |
| 20260507151738 | 17 | 255 | 0.0 | 1.6 | 0.00 | 0.00 | 0.00 | 85 | 1020.8 |
| 20260507151234 | 16 | 355 | 0.0 | 1.6 | 0.00 | 0.00 | 0.00 | 86 | 1020.7 |
| 20260507150731 | 16 | 8 | 0.0 | 0.0 | 0.00 | 0.00 | 0.00 | 87 | 1020.8 |
| 20260507150228 | 16 | 254 | 0.0 | 1.6 | 0.00 | 0.00 | 0.00 | 88 | 1020.9 |
| 20260507145724 | 16 | 264 | 1.6 | 3.2 | 0.00 | 0.00 | 0.00 | 90 | 1020.9 |
| 20260507145221 | 15 | 254 | 0.0 | 1.6 | 0.00 | 0.00 | 0.00 | 90 | 1020.9 |
| 20260507144718 | 15 | 200 | 0.0 | 1.6 | 0.00 | 0.00 | 0.00 | 92 | 1021.0 |
| 20260507144216 | 15 | 270 | 0.0 | 1.6 | 0.00 | 0.00 | 0.00 | 93 | 1020.7 |
| 20260507143712 | 15 | 249 | 0.0 | 4.8 | 0.00 | 0.00 | 0.00 | 94 | 1020.6 |
| 20260507143209 | 15 | 187 | 0.0 | 0.0 | 0.00 | 0.00 | 0.00 | 96 | 1020.6 |
| 20260507142705 | 15 | 187 | 0.0 | 0.0 | 0.00 | 0.00 | 0.00 | 96 | 1020.5 |
| 20260507142202 | 14 | 270 | 0.0 | 0.0 | 0.00 | 0.00 | 0.00 | 97 | 1020.7 |
| 20260507141658 | 14 | 270 | 0.0 | 0.0 | 0.00 | 0.00 | 0.00 | 98 | 1020.4 |
| 20260507141155 | 13 | 270 | 0.0 | 0.0 | 0.00 | 0.00 | 0.00 | 98 | 1020.6 |
| 20260507140651 | 13 | 270 | 0.0 | 0.0 | 0.00 | 0.00 | 0.00 | 98 | 1020.6 |
| 20260507140149 | 13 | 270 | 0.0 | 0.0 | 0.00 | 0.00 | 0.00 | 98 | 1020.6 |
| 20260507135646 | 13 | 270 | 0.0 | 0.0 | 0.00 | 0.00 | 0.00 | 98 | 1020.6 |
| 20260507135143 | 13 | 270 | 0.0 | 0.0 | 0.00 | 0.00 | 0.00 | 98 | 1020.3 |
| 20260507134639 | 13 | 270 | 0.0 | 0.0 | 0.00 | 0.00 | 0.00 | 98 | 1020.2 |
| 20260507134136 | 13 | 270 | 0.0 | 0.0 | 0.00 | 0.00 | 0.00 | 98 | 1020.2 |
| 20260507133631 | 12 | 270 | 0.0 | 0.0 | 0.00 | 0.00 | 0.00 | 98 | 1020.1 |
| 20260507133129 | 12 | 270 | 0.0 | 0.0 | 0.00 | 0.00 | 0.00 | 98 | 1020.3 |
| 20260507132626 | 12 | 270 | 0.0 | 0.0 | 0.00 | 0.00 | 0.00 | 98 | 1020.2 |
| 20260507132122 | 12 | 270 | 0.0 | 0.0 | 0.00 | 0.00 | 0.00 | 97 | 1020.3 |
| 20260507131619 | 12 | 270 | 0.0 | 0.0 | 0.00 | 0.00 | 0.00 | 97 | 1020.1 |
| 20260507131117 | 12 | 270 | 0.0 | 0.0 | 0.00 | 0.00 | 0.00 | 97 | 1020.0 |
| 20260507130613 | 12 | 270 | 0.0 | 0.0 | 0.00 | 0.00 | 0.00 | 97 | 1019.8 |
| 20260507130111 | 12 | 270 | 0.0 | 0.0 | 0.00 | 0.00 | 0.00 | 97 | 1019.7 |
| 20260507125610 | 12 | 270 | 0.0 | 0.0 | 0.00 | 0.00 | 0.00 | 97 | 1019.8 |
| 20260507125107 | 12 | 270 | 0.0 | 0.0 | 0.00 | 0.00 | 0.00 | 97 | 1019.9 |
| 20260507124603 | 12 | 270 | 0.0 | 0.0 | 0.00 | 0.00 | 0.00 | 97 | 1020.0 |
| 20260507124101 | 12 | 270 | 0.0 | 0.0 | 0.00 | 0.00 | 0.00 | 97 | 1020.0 |
| 20260507123559 | 12 | 270 | 0.0 | 0.0 | 0.00 | 0.00 | 0.00 | 97 | 1019.8 |
| 20260507123055 | 12 | 270 | 0.0 | 0.0 | 0.00 | 0.00 | 0.00 | 97 | 1020.0 |
| 20260507122551 | 12 | 270 | 0.0 | 0.0 | 0.00 | 0.00 | 0.00 | 97 | 1019.8 |
| 20260507122047 | 12 | 270 | 0.0 | 0.0 | 0.00 | 0.00 | 0.00 | 97 | 1019.9 |
| 20260507121543 | 12 | 270 | 0.0 | 0.0 | 0.00 | 0.00 | 0.00 | 97 | 1020.0 |
| 20260507121039 | 12 | 270 | 0.0 | 0.0 | 0.00 | 0.00 | 0.00 | 97 | 1019.8 |
| 20260507120535 | 13 | 270 | 0.0 | 0.0 | 0.00 | 0.00 | 0.00 | 97 | 1019.9 |
| 20260507120032 | 12 | 270 | 0.0 | 0.0 | 0.00 | 0.00 | 0.00 | 96 | 1020.1 |
| 20260507115528 | 12 | 270 | 0.0 | 0.0 | 0.00 | 0.00 | 0.00 | 96 | 1019.8 |
| 20260507115024 | 12 | 270 | 0.0 | 0.0 | 0.00 | 0.00 | 0.00 | 96 | 1020.0 |
| 20260507114520 | 12 | 270 | 0.0 | 0.0 | 0.00 | 0.00 | 0.00 | 96 | 1019.9 |
| 20260507114018 | 12 | 270 | 0.0 | 0.0 | 0.00 | 0.00 | 0.00 | 96 | 1020.2 |
| 20260507113515 | 12 | 270 | 0.0 | 0.0 | 0.00 | 0.00 | 0.00 | 96 | 1019.7 |
| 20260507113012 | 12 | 270 | 0.0 | 0.0 | 0.00 | 0.00 | 0.00 | 96 | 1020.0 |
| 20260507112510 | 13 | 270 | 0.0 | 0.0 | 0.00 | 0.00 | 0.00 | 96 | 1020.0 |
| 20260507112006 | 13 | 270 | 0.0 | 0.0 | 0.00 | 0.00 | 0.00 | 96 | 1020.0 |
| 20260507111504 | 12 | 270 | 0.0 | 0.0 | 0.00 | 0.00 | 0.00 | 96 | 1020.1 |
| 20260507110959 | 12 | 270 | 0.0 | 0.0 | 0.00 | 0.00 | 0.00 | 95 | 1020.2 |
| 20260507110456 | 13 | 270 | 0.0 | 0.0 | 0.00 | 0.00 | 0.00 | 95 | 1020.3 |
| 20260507105952 | 13 | 270 | 0.0 | 0.0 | 0.00 | 0.00 | 0.00 | 95 | 1020.2 |
| 20260507105449 | 13 | 270 | 0.0 | 0.0 | 0.00 | 0.00 | 0.00 | 95 | 1020.2 |
| 20260507104946 | 12 | 270 | 0.0 | 0.0 | 0.00 | 0.00 | 0.00 | 95 | 1020.0 |
| 20260507104443 | 13 | 270 | 0.0 | 0.0 | 0.00 | 0.00 | 0.00 | 95 | 1020.3 |
| 20260507103938 | 13 | 270 | 0.0 | 0.0 | 0.00 | 0.00 | 0.00 | 95 | 1020.2 |
| 20260507103436 | 13 | 270 | 0.0 | 0.0 | 0.00 | 0.00 | 0.00 | 95 | 1020.2 |
| 20260507102932 | 13 | 270 | 0.0 | 0.0 | 0.00 | 0.00 | 0.00 | 94 | 1020.3 |
| 20260507102429 | 13 | 270 | 0.0 | 0.0 | 0.00 | 0.00 | 0.00 | 94 | 1020.2 |
| 20260507101925 | 13 | 270 | 0.0 | 0.0 | 0.00 | 0.00 | 0.00 | 94 | 1020.4 |
| 20260507101420 | 13 | 270 | 0.0 | 0.0 | 0.00 | 0.00 | 0.00 | 94 | 1020.2 |
| 20260507100917 | 13 | 270 | 0.0 | 0.0 | 0.00 | 0.00 | 0.00 | 94 | 1020.1 |
| 20260507100415 | 13 | 270 | 0.0 | 0.0 | 0.00 | 0.00 | 0.00 | 94 | 1020.4 |
| 20260507095913 | 13 | 270 | 0.0 | 0.0 | 0.00 | 0.00 | 0.00 | 93 | 1020.2 |
| 20260507095409 | 13 | 270 | 0.0 | 0.0 | 0.00 | 0.00 | 0.00 | 93 | 1020.5 |
| 20260507094907 | 13 | 270 | 0.0 | 0.0 | 0.00 | 0.00 | 0.00 | 93 | 1020.5 |
| 20260507094403 | 13 | 270 | 0.0 | 0.0 | 0.00 | 0.00 | 0.00 | 92 | 1020.7 |
| 20260507093900 | 13 | 270 | 0.0 | 0.0 | 0.00 | 0.00 | 0.00 | 92 | 1020.6 |
| 20260507093358 | 13 | 270 | 0.0 | 0.0 | 0.00 | 0.00 | 0.00 | 92 | 1020.6 |
| 20260507092856 | 14 | 270 | 0.0 | 0.0 | 0.00 | 0.00 | 0.00 | 92 | 1020.6 |
| 20260507092352 | 14 | 270 | 0.0 | 0.0 | 0.00 | 0.00 | 0.00 | 92 | 1021.0 |
| 20260507091849 | 14 | 270 | 0.0 | 0.0 | 0.00 | 0.00 | 0.00 | 91 | 1020.8 |
| 20260507091345 | 14 | 270 | 0.0 | 0.0 | 0.00 | 0.00 | 0.00 | 91 | 1020.7 |
| 20260507090841 | 14 | 270 | 0.0 | 0.0 | 0.00 | 0.00 | 0.00 | 91 | 1020.9 |
| 20260507090337 | 15 | 262 | 0.0 | 0.0 | 0.00 | 0.00 | 0.00 | 91 | 1020.9 |
| 20260507085834 | 15 | 262 | 0.0 | 0.0 | 0.00 | 0.00 | 0.00 | 90 | 1020.9 |
| 20260507085331 | 15 | 262 | 0.0 | 0.0 | 0.00 | 0.00 | 0.00 | 90 | 1020.9 |
| 20260507084829 | 15 | 262 | 0.0 | 0.0 | 0.00 | 0.00 | 0.00 | 90 | 1021.0 |
| 20260507084325 | 15 | 262 | 0.0 | 0.0 | 0.00 | 0.00 | 0.00 | 90 | 1021.0 |
| 20260507083822 | 15 | 262 | 0.0 | 1.6 | 0.00 | 0.00 | 0.00 | 90 | 1020.9 |
| 20260507083319 | 15 | 353 | 0.0 | 0.0 | 0.00 | 0.00 | 0.00 | 90 | 1021.3 |
| 20260507082815 | 15 | 353 | 0.0 | 0.0 | 0.00 | 0.00 | 0.00 | 89 | 1021.1 |
| 20260507082310 | 15 | 270 | 0.0 | 0.0 | 0.00 | 0.00 | 0.00 | 89 | 1021.2 |
| 20260507081808 | 15 | 345 | 0.0 | 1.6 | 0.00 | 0.00 | 0.00 | 89 | 1021.2 |
| 20260507081303 | 15 | 249 | 1.6 | 4.8 | 0.00 | 0.00 | 0.00 | 89 | 1021.2 |
| 20260507080800 | 15 | 286 | 0.0 | 3.2 | 0.00 | 0.00 | 0.00 | 89 | 1021.4 |
| 20260507080257 | 15 | 287 | 0.0 | 3.2 | 0.00 | 0.00 | 0.00 | 89 | 1021.4 |
| 20260507075752 | 15 | 270 | 0.0 | 4.8 | 0.00 | 0.00 | 0.00 | 89 | 1021.4 |
| 20260507075248 | 15 | 249 | 0.0 | 0.0 | 0.00 | 0.00 | 0.00 | 89 | 1021.4 |
| 20260507074745 | 15 | 0 | 0.0 | 4.8 | 0.00 | 0.00 | 0.00 | 89 | 1021.3 |
| 20260507074243 | 15 | 258 | 0.0 | 3.2 | 0.00 | 0.00 | 0.00 | 89 | 1021.5 |
| 20260507073739 | 15 | 246 | 0.0 | 0.0 | 0.00 | 0.00 | 0.00 | 88 | 1021.4 |
| 20260507073236 | 15 | 279 | 0.0 | 0.0 | 0.00 | 0.00 | 0.00 | 88 | 1021.3 |
| 20260507072734 | 15 | 270 | 0.0 | 0.0 | 0.00 | 0.00 | 0.00 | 88 | 1021.5 |
| 20260507072231 | 15 | 246 | 0.0 | 0.0 | 0.00 | 0.00 | 0.00 | 88 | 1021.2 |
| 20260507071729 | 15 | 270 | 0.0 | 0.0 | 0.00 | 0.00 | 0.00 | 88 | 1021.6 |
| 20260507071225 | 15 | 270 | 0.0 | 0.0 | 0.00 | 0.00 | 0.00 | 88 | 1021.5 |
| 20260507070722 | 15 | 255 | 0.0 | 0.0 | 0.00 | 0.00 | 0.00 | 88 | 1021.4 |
| 20260507070219 | 15 | 255 | 0.0 | 0.0 | 0.00 | 0.00 | 0.00 | 87 | 1021.5 |
| 20260507065715 | 15 | 255 | 0.0 | 0.0 | 0.00 | 0.00 | 0.00 | 87 | 1021.6 |
| 20260507065212 | 16 | 255 | 0.0 | 0.0 | 0.00 | 0.00 | 0.00 | 87 | 1021.4 |
| 20260507064709 | 16 | 255 | 0.0 | 0.0 | 0.00 | 0.00 | 0.00 | 87 | 1021.4 |
| 20260507064209 | 16 | 261 | 0.0 | 0.0 | 0.00 | 0.00 | 0.00 | 87 | 1021.8 |
| 20260507063705 | 16 | 270 | 0.0 | 0.0 | 0.00 | 0.00 | 0.00 | 87 | 1021.6 |
| 20260507063201 | 16 | 270 | 0.0 | 1.6 | 0.00 | 0.00 | 0.00 | 87 | 1021.7 |
| 20260507062659 | 16 | 246 | 0.0 | 0.0 | 0.00 | 0.00 | 0.00 | 87 | 1021.4 |
| 20260507062156 | 16 | 289 | 0.0 | 1.6 | 0.00 | 0.00 | 0.00 | 87 | 1021.6 |
| 20260507061654 | 16 | 337 | 0.0 | 0.0 | 0.00 | 0.00 | 0.00 | 86 | 1021.6 |
| 20260507061152 | 16 | 254 | 0.0 | 1.6 | 0.00 | 0.00 | 0.00 | 86 | 1021.5 |
| 20260507060649 | 16 | 270 | 0.0 | 0.0 | 0.00 | 0.00 | 0.00 | 86 | 1021.6 |
| 20260507060146 | 16 | 240 | 0.0 | 1.6 | 0.00 | 0.00 | 0.00 | 86 | 1021.5 |
| 20260507055642 | 16 | 270 | 0.0 | 1.6 | 0.00 | 0.00 | 0.00 | 85 | 1021.5 |
| 20260507055138 | 16 | 278 | 1.6 | 1.6 | 0.00 | 0.00 | 0.00 | 85 | 1021.4 |
| 20260507054634 | 16 | 261 | 0.0 | 3.2 | 0.00 | 0.00 | 0.00 | 85 | 1021.5 |
| 20260507054131 | 16 | 291 | 1.6 | 3.2 | 0.00 | 0.00 | 0.00 | 84 | 1021.5 |
| 20260507053629 | 16 | 246 | 0.0 | 1.6 | 0.00 | 0.00 | 0.00 | 84 | 1021.6 |
| 20260507053126 | 16 | 278 | 1.6 | 4.8 | 0.00 | 0.00 | 0.00 | 83 | 1021.5 |
| 20260507052625 | 16 | 288 | 3.2 | 4.8 | 0.00 | 0.00 | 0.00 | 83 | 1021.4 |
| 20260507052121 | 16 | 303 | 3.2 | 3.2 | 0.00 | 0.00 | 0.00 | 82 | 1021.6 |
| 20260507051619 | 16 | 254 | 0.0 | 4.8 | 0.00 | 0.00 | 0.00 | 81 | 1021.5 |
| 20260507051115 | 16 | 278 | 0.0 | 1.6 | 0.00 | 0.00 | 0.00 | 81 | 1021.4 |
| 20260507050612 | 16 | 290 | 3.2 | 4.8 | 0.00 | 0.00 | 0.00 | 81 | 1021.4 |
| 20260507050109 | 16 | 262 | 1.6 | 3.2 | 0.00 | 0.00 | 0.00 | 81 | 1021.4 |
| 20260507045605 | 17 | 286 | 0.0 | 3.2 | 0.00 | 0.00 | 0.00 | 81 | 1021.4 |
| 20260507045102 | 16 | 270 | 0.0 | 3.2 | 0.00 | 0.00 | 0.00 | 81 | 1021.4 |
| 20260507044559 | 16 | 264 | 0.0 | 4.8 | 0.00 | 0.00 | 0.00 | 81 | 1021.6 |
| 20260507044056 | 17 | 337 | 0.0 | 1.6 | 0.00 | 0.00 | 0.00 | 81 | 1021.5 |
| 20260507043551 | 17 | 293 | 3.2 | 4.8 | 0.00 | 0.00 | 0.00 | 80 | 1021.3 |
| 20260507043049 | 17 | 285 | 1.6 | 4.8 | 0.00 | 0.00 | 0.00 | 80 | 1021.3 |
| 20260507042545 | 17 | 246 | 0.0 | 4.8 | 0.00 | 0.00 | 0.00 | 79 | 1021.3 |
| 20260507042041 | 17 | 0 | 3.2 | 4.8 | 0.00 | 0.00 | 0.00 | 79 | 1021.3 |
| 20260507041538 | 17 | 334 | 4.8 | 4.8 | 0.00 | 0.00 | 0.00 | 78 | 1021.4 |
| 20260507041035 | 17 | 346 | 0.0 | 4.8 | 0.00 | 0.00 | 0.00 | 78 | 1021.2 |
| 20260507040531 | 17 | 254 | 4.8 | 9.7 | 0.00 | 0.00 | 0.00 | 77 | 1021.3 |
| 20260507040027 | 17 | 282 | 8.0 | 8.0 | 0.00 | 0.00 | 0.00 | 76 | 1021.2 |
| 20260507035523 | 17 | 270 | 0.0 | 4.8 | 0.00 | 0.00 | 0.00 | 76 | 1021.2 |
| 20260507035020 | 17 | 291 | 1.6 | 4.8 | 0.00 | 0.00 | 0.00 | 75 | 1020.9 |
| 20260507034517 | 17 | 290 | 3.2 | 4.8 | 0.00 | 0.00 | 0.00 | 75 | 1021.0 |
| 20260507034015 | 17 | 337 | 1.6 | 6.4 | 0.00 | 0.00 | 0.00 | 74 | 1020.8 |
| 20260507033513 | 17 | 233 | 3.2 | 9.7 | 0.00 | 0.00 | 0.00 | 73 | 1020.7 |
| 20260507033010 | 18 | 217 | 0.0 | 8.0 | 0.00 | 0.00 | 0.00 | 73 | 1020.7 |
| 20260507032506 | 18 | 233 | 0.0 | 8.0 | 0.00 | 0.00 | 0.00 | 72 | 1021.0 |
| 20260507032003 | 18 | 346 | 0.0 | 8.0 | 0.00 | 0.00 | 0.00 | 71 | 1020.8 |
| 20260507031459 | 18 | 283 | 1.6 | 6.4 | 0.00 | 0.00 | 0.00 | 71 | 1020.5 |
| 20260507030956 | 18 | 270 | 0.0 | 6.4 | 0.00 | 0.00 | 0.00 | 71 | 1020.8 |
| 20260507030453 | 18 | 243 | 0.0 | 6.4 | 0.00 | 0.00 | 0.00 | 71 | 1020.7 |
| 20260507025950 | 18 | 270 | 0.0 | 4.8 | 0.00 | 0.00 | 0.00 | 71 | 1020.5 |
| 20260507025447 | 18 | 283 | 3.2 | 3.2 | 0.00 | 0.00 | 0.00 | 72 | 1020.6 |
| 20260507024945 | 18 | 243 | 4.8 | 6.4 | 0.00 | 0.00 | 0.00 | 72 | 1020.8 |
| 20260507024442 | 18 | 255 | 4.8 | 11.3 | 0.00 | 0.00 | 0.00 | 71 | 1020.5 |
| 20260507023938 | 18 | 244 | 8.0 | 12.9 | 0.00 | 0.00 | 0.00 | 70 | 1020.5 |
| 20260507023435 | 18 | 304 | 3.2 | 8.0 | 0.00 | 0.00 | 0.00 | 69 | 1020.4 |
| 20260507022932 | 19 | 270 | 0.0 | 6.4 | 0.00 | 0.00 | 0.00 | 68 | 1020.3 |
| 20260507022429 | 19 | 270 | 1.6 | 6.4 | 0.00 | 0.00 | 0.00 | 68 | 1020.1 |
| 20260507021925 | 19 | 342 | 3.2 | 8.0 | 0.00 | 0.00 | 0.00 | 68 | 1020.1 |
| 20260507021420 | 20 | 250 | 4.8 | 8.0 | 0.00 | 0.00 | 0.00 | 67 | 1020.1 |
| 20260507020918 | 20 | 7 | 0.0 | 6.4 | 0.00 | 0.00 | 0.00 | 65 | 1020.2 |
| 20260507020414 | 20 | 244 | 6.4 | 11.3 | 0.00 | 0.00 | 0.00 | 65 | 1020.1 |
| 20260507015912 | 20 | 249 | 0.0 | 8.0 | 0.00 | 0.00 | 0.00 | 64 | 1020.1 |
| 20260507015410 | 20 | 262 | 3.2 | 9.7 | 0.00 | 0.00 | 0.00 | 63 | 1020.0 |
| 20260507014907 | 20 | 270 | 3.2 | 8.0 | 0.00 | 0.00 | 0.00 | 64 | 1019.7 |
| 20260507014403 | 20 | 325 | 1.6 | 9.7 | 0.00 | 0.00 | 0.00 | 64 | 1019.8 |
| 20260507013859 | 20 | 266 | 0.0 | 11.3 | 0.00 | 0.00 | 0.00 | 64 | 1019.8 |